Погода в Берлингтоне

США     44°28′33″N   73°12′21″W
темп.,
°C
ветер,
м/с
пор.,
м/с
влажн.,
%
обл.,
%
осадки,
мм/ч
давл.,
гПа
погр.,
м
21 октября, чт
чт2123:00+14ююв338512 0.3 1013103
02:00+13ююв45845 0.4 1013127
05:00+12ю458690 0.0 1013157
08:00+12ю4789100 0.8 1013250
11:00+14ю71091100 1.3 1013478
14:00+14ююв71285100 3.4 1010452
17:00+17ююв71276100 0.0 1008305
20:00+16ю61278100 0.0 1008294
22 октября, пт
пт2223:00+15ю71379100 0.0 1005371
02:00+14ю81391100 6.3 1004553
05:00+15ю71192100 1.1 1003470
08:00+14ю248792 2.1 1006212
11:00+12сз6881100 0.9 1009598
14:00+12ссз457474 1.1 1011765
17:00+12ссз567096 0.0 1012854
20:00+11ссз5668100 0.0 1014785
23 октября, сб
сб2323:00+9ссв456498 0.1 1015594
02:00+9ссв4460100 0.1 1014621
05:00+8ссв3462100 0.0 1014487
08:00+7ссв3364100 0.0 1015420
11:00+8с126087 0.0 1015616
14:00+10ю1258100 0.0 1014610
17:00+10с346099 0.0 1014914
20:00+9с126091 0.0 1015422
24 октября, вс
вс2423:00+8сз12655 0.0 1016324
02:00+7ю12712 0.0 1016194
05:00+6ююв44825 0.0 1017269
08:00+5ю458177 0.0 1018314
11:00+7ю337052 0.0 1018303
14:00+9ююв1164100 0.1 1017366
17:00+9ссз226996 0.1 1017310
20:00+8всв2285100 1.8 1018241
25 октября, пн
пн2523:00+8вюв1184100 0.5 1018179
02:00+8ссз5686100 4.8 1018888
05:00+6ссз8893100 1.4 1020727
08:00+6с677999 1.8 1021730
11:00+7с66695 0.0 1022814
14:00+8с555638 0.0 1020987
17:00+9с5560100 0.0 1020784
20:00+7с4565100 0.0 1021482